Weather History for Marysville, OH

Change the Weather History Date:

Friday, November 9, 2012

  Actual Average (KDLZ) Record (KDLZ)
Temperature  
Mean Temperature 42 °F -  
Max Temperature 57 °F 52 °F 72 °F (1975)
Min Temperature 27 °F 32 °F 9 °F (1991)
Degree Days  
Heating Degree Days 23    
Moisture  
Dew Point 32 °F    
Average Humidity 70    
Maximum Humidity 95    
Minimum Humidity 43    
Precipitation  
Precipitation 0.02 in - - ()
Sea Level Pressure  
Sea Level Pressure 30.18 in    
Wind  
Wind Speed 4 mph (SSW)    
Max Wind Speed 14 mph    
Max Gust Speed 18 mph    
Visibility 7 miles    
Events      
Averages and records for this station are not official NWS values.
T = Trace of Precipitation, MM = Missing Value Source: NWS Daily Summary

Daily Weather History Graph

Daily Weather History Graph

Search for Another Location

Airport:

Trip Planner

Search our weather history database for the weather conditions in past years. The results will help you decide how hot, cold, wet, or windy it might be!

Date:

Astronomy

Nov. 09, 2012 Rise Set
Actual Time 7:12 AM EST 5:21 PM EST
Civil Twilight 6:43 AM EST 5:50 PM EST
Nautical Twilight 6:11 AM EST 6:22 PM EST
Astronomical Twilight 5:39 AM EST 6:54 PM EST
Moon 2:09 AM EST (11/9) 2:34 PM EST (11/9)
Length of Visible Light 11h 06m
Length of Day
10h 08m
Waning Crescent, 23% of the Moon is Illuminated
Nov 9
Waning Crescent
Nov 13
New
Nov 20
First Quarter
Nov 28
Full
Dec 6
Last Quarter

Hourly Weather History & Observations

Time (EST) Temp. Windchill Dew Point Humidity Pressure Visibility Wind Dir Wind Speed Gust Speed Precip Events Conditions
12:14 AM 30.6 °F - 28.6 °F 92% 30.17 in 5.0 mi Calm Calm - N/A   Clear
12:34 AM 30.0 °F - 28.0 °F 92% 30.17 in 5.0 mi Calm Calm - N/A   Clear
12:54 AM 29.7 °F - 27.5 °F 92% 30.17 in 5.0 mi Calm Calm - N/A   Clear
1:14 AM 29.7 °F - 27.7 °F 92% 30.17 in 4.0 mi Calm Calm - N/A   Clear
1:34 AM 29.7 °F - 27.9 °F 93% 30.17 in 4.0 mi Calm Calm - N/A   Clear
1:54 AM 29.3 °F - 27.5 °F 93% 30.17 in 4.0 mi Calm Calm - N/A   Clear
2:14 AM 29.7 °F - 28.0 °F 94% 30.17 in 4.0 mi Calm Calm - N/A   Clear
2:34 AM 27.5 °F - 25.9 °F 94% 30.17 in 4.0 mi Calm Calm - N/A   Clear
2:54 AM 28.2 °F - 26.6 °F 94% 30.18 in 4.0 mi Calm Calm - N/A   Clear
3:14 AM 28.2 °F - 26.8 °F 94% 30.18 in 4.0 mi Calm Calm - N/A   Clear
3:34 AM 28.8 °F - 27.3 °F 94% 30.18 in 4.0 mi Calm Calm - N/A   Clear
3:54 AM 28.2 °F - 26.6 °F 94% 30.18 in 4.0 mi Calm Calm - N/A   Clear
4:14 AM 28.0 °F - 26.6 °F 94% 30.19 in 4.0 mi Calm Calm - N/A   Clear
4:35 AM 28.0 °F - 26.4 °F 94% 30.19 in 4.0 mi Calm Calm - N/A   Clear
4:54 AM 27.3 °F - 25.7 °F 94% 30.20 in 3.0 mi Calm Calm - N/A   Clear
5:14 AM 28.4 °F - 27.0 °F 94% 30.20 in 4.0 mi Calm Calm - N/A   Clear
5:35 AM 27.7 °F - 26.1 °F 94% 30.21 in 4.0 mi Calm Calm - N/A   Clear
5:54 AM 28.4 °F - 27.0 °F 94% 30.21 in 4.0 mi Calm Calm - N/A   Clear
6:14 AM 27.5 °F - 26.1 °F 94% 30.21 in 4.0 mi Calm Calm - N/A   Clear
6:34 AM 27.1 °F - 25.7 °F 94% 30.22 in 4.0 mi Calm Calm - N/A   Clear
6:54 AM 27.3 °F - 25.7 °F 94% 30.22 in 3.0 mi Calm Calm - N/A   Clear
7:14 AM 27.0 °F - 25.5 °F 94% 30.22 in 2.5 mi Calm Calm - N/A   Clear
7:34 AM 27.0 °F - 25.5 °F 94% 30.23 in 2.5 mi Calm Calm - N/A   Clear
7:54 AM 29.3 °F - 28.0 °F 95% 30.23 in 2.5 mi Calm Calm - N/A   Clear
8:14 AM 31.1 °F - 29.7 °F 94% 30.23 in 2.5 mi Calm Calm - N/A   Clear
8:34 AM 33.3 °F 28.9 °F 31.6 °F 94% 30.24 in 2.5 mi SW 4.6 mph - N/A   Clear
8:54 AM 36.0 °F 32.1 °F 32.2 °F 86% 30.24 in 3.0 mi SW 4.6 mph - N/A   Clear
9:14 AM 38.1 °F 34.6 °F 32.9 °F 81% 30.24 in 4.0 mi SW 4.6 mph - N/A   Clear
9:54 AM 43.2 °F 39.0 °F 35.1 °F 73% 30.24 in 4.0 mi SW 6.9 mph - N/A   Clear
10:14 AM 45.0 °F 40.6 °F 35.4 °F 69% 30.23 in 5.0 mi SW 8.1 mph - N/A   Clear
10:34 AM 47.1 °F - 36.1 °F 66% 30.23 in 5.0 mi SW 8.1 mph - N/A   Clear
10:54 AM 49.1 °F - 36.5 °F 62% 30.23 in 5.0 mi SW 8.1 mph - N/A   Clear
11:14 AM 50.5 °F - 36.7 °F 59% 30.23 in 7.0 mi WSW 10.4 mph - N/A   Clear
11:34 AM 51.6 °F - 36.5 °F 56% 30.22 in 7.0 mi SW 9.2 mph - N/A   Clear
11:54 AM 52.5 °F - 36.3 °F 54% 30.21 in 10.0 mi WSW 5.8 mph - N/A   Clear
12:14 PM 53.1 °F - 36.3 °F 53% 30.20 in 10.0 mi WSW 11.5 mph - N/A   Clear
12:34 PM 53.6 °F - 36.0 °F 51% 30.19 in 10.0 mi SW 8.1 mph - N/A   Clear
12:54 PM 54.5 °F - 36.0 °F 50% 30.18 in 10.0 mi SW 9.2 mph - N/A   Clear
1:14 PM 54.9 °F - 36.0 °F 49% 30.17 in 10.0 mi SSW 9.2 mph - N/A   Clear
1:34 PM 55.9 °F - 35.6 °F 46% 30.16 in 10.0 mi SW 13.8 mph - N/A   Clear
1:54 PM 56.3 °F - 35.4 °F 46% 30.16 in 10.0 mi SW 13.8 mph 18.4 mph N/A   Clear
2:14 PM 56.5 °F - 35.4 °F 45% 30.16 in 10.0 mi SSW 11.5 mph - N/A   Clear
2:34 PM 56.8 °F - 35.4 °F 45% 30.15 in 10.0 mi SSW 11.5 mph 17.3 mph N/A   Clear
2:54 PM 56.8 °F - 35.6 °F 45% 30.15 in 10.0 mi SSW 10.4 mph 17.3 mph N/A   Clear
3:14 PM 57.0 °F - 34.7 °F 43% 30.15 in 10.0 mi SSW 10.4 mph - N/A   Clear
3:34 PM 56.7 °F - 34.3 °F 43% 30.14 in 10.0 mi SSW 9.2 mph - N/A   Clear
3:54 PM 56.5 °F - 34.7 °F 44% 30.15 in 10.0 mi SSW 11.5 mph - N/A   Clear
4:14 PM 56.1 °F - 35.1 °F 45% 30.15 in 10.0 mi SW 11.5 mph - N/A   Clear
4:34 PM 55.4 °F - 34.9 °F 46% 30.14 in 10.0 mi SSW 11.5 mph - N/A   Clear
4:54 PM 54.1 °F - 34.7 °F 48% 30.14 in 10.0 mi SSW 8.1 mph - N/A   Clear
5:14 PM 52.3 °F - 34.7 °F 51% 30.14 in 10.0 mi SSW 8.1 mph - N/A   Clear
5:34 PM 50.7 °F - 34.7 °F 54% 30.15 in 10.0 mi SSW 6.9 mph - N/A   Clear
5:54 PM 49.1 °F - 34.5 °F 57% 30.15 in 10.0 mi South 6.9 mph - N/A   Scattered Clouds
6:14 PM 48.6 °F - 34.3 °F 58% 30.15 in 10.0 mi South 6.9 mph - N/A   Scattered Clouds
6:34 PM 48.0 °F - 34.3 °F 59% 30.15 in 10.0 mi South 8.1 mph - N/A   Scattered Clouds
6:54 PM 48.2 °F - 34.7 °F 60% 30.15 in 10.0 mi South 9.2 mph - N/A   Mostly Cloudy
7:14 PM 48.2 °F - 34.7 °F 60% 30.15 in 10.0 mi South 10.4 mph - N/A   Mostly Cloudy
7:34 PM 48.2 °F - 34.3 °F 59% 30.14 in 10.0 mi South 9.2 mph - N/A   Scattered Clouds
7:54 PM 49.3 °F - 34.7 °F 57% 30.14 in 10.0 mi South 11.5 mph - N/A   Mostly Cloudy
8:14 PM 49.1 °F - 34.3 °F 57% 30.13 in 10.0 mi South 10.4 mph - N/A   Mostly Cloudy
8:34 PM 49.1 °F - 34.2 °F 56% 30.14 in 10.0 mi SSW 8.1 mph - N/A   Mostly Cloudy
8:54 PM 48.6 °F - 34.2 °F 58% 30.13 in 10.0 mi South 9.2 mph - N/A   Mostly Cloudy
9:14 PM 47.7 °F - 34.7 °F 61% 30.14 in 10.0 mi SSW 8.1 mph - N/A   Mostly Cloudy
9:34 PM 46.8 °F - 35.1 °F 64% 30.14 in 10.0 mi South 5.8 mph - N/A   Scattered Clouds
9:54 PM 48.2 °F - 35.2 °F 61% 30.14 in 10.0 mi South 9.2 mph - N/A   Overcast
10:14 PM 49.1 °F - 35.1 °F 58% 30.13 in 10.0 mi SSW 8.1 mph - N/A   Overcast
10:34 PM 49.1 °F - 35.6 °F 60% 30.14 in 10.0 mi South 8.1 mph - N/A   Overcast
10:54 PM 49.1 °F - 35.4 °F 59% 30.14 in 10.0 mi SSW 6.9 mph - N/A   Overcast
11:14 PM 49.3 °F - 35.4 °F 59% 30.14 in 10.0 mi South 6.9 mph - N/A   Overcast
11:34 PM 49.3 °F - 35.4 °F 59% 30.15 in 10.0 mi SW 8.1 mph - N/A   Overcast
11:54 PM 47.3 °F - 38.7 °F 72% 30.16 in 2.5 mi SW 3.5 mph - 0.02 in   Overcast